Location: Bidwell Hollow
(37.7387°N, 90.1707°W)
Time: 02:13:01
(UTC+00:00)

Vanguard 3 - Pass Details

Date: 18 May 2026
Orbit: 507 x 3204 km, 33.3° (Epoch: 6 June)

Event Time Altitude Azimuth Distance (km) Brightness Sun altitude
Rises 16:35:48 0° 212° (SSW) 5,482 11.4 64.7°
Reaches altitude 10° 16:39:19 10° 204° (SSW) 4,816 11.3 65.2°
Maximum altitude 16:52:37 39° 142° (SE) 3,847 11.9 67.1°
Drops below altitude 10° 17:09:34 10° 82° (E) 6,119 11.9 69.2°
Sets 17:14:42 0° 76° (ENE) 7,063 12.0 69.7°
